Regional Weather Roundup
Issued by NWS Midland/Odessa, TX

Skip options and go directly to product.
Home | Oldest Version | Previous Version | Current Version | All | Text Only | Save Text | Print | Product List | Glossary On

Skip product version selection by date and time.   
818
ASUS44 KMAF 012210
RWRMAF
MIDLAND AREA WEATHER ROUNDUP
NATIONAL WEATHER SERVICE MIDLAND TX
500 PM CDT WED OCT 01 2014

...IN SOUTHWEST TEXAS AND SOUTHEAST NEW MEXICO...

CITY           SKY/WX    TMP DP  RH WIND       PRES   REMARKS
ALPINE         SUNNY     86  37  17 W13       29.96S
ANDREWS        FAIR      89  40  18 SW13G21   29.80S
ARTESIA        NOT AVBL
BIG SPRING     SUNNY     94  52  23 SW10      29.78S
CARLSBAD       SUNNY     87  39  18 S10       29.78F
DRYDEN           N/A     95  62  33 SE8       29.75R
FORT STOCKTON  SUNNY     91  49  23 MISG      29.80S
GUAD PASS      SUNNY     77  36  22 W28G38    29.96S
HOBBS          SUNNY     82  41  23 SW13      29.83F
MARFA          SUNNY     82  41  23 SW10      29.97S
MIDLAND AIRPK  SUNNY     91  47  21 SW8       29.79S
MIDLAND INTL   SUNNY     90  47  22 SW9G21    29.78F
ODESSA         SUNNY     89  48  24 SW12      29.81S
PECOS          SUNNY     92  42  17 W12       29.77S
PRESIDIO       FAIR      93  42  17 S3        29.79F
SEMINOLE       SUNNY     86  41  20 W10G16    29.81F
SNYDER         SUNNY     90  60  36 S8        29.76S
WINK           SUNNY     90  45  21 SW8G17    29.77F
$$
...OTHER STATIONS IN TEXAS...

CITY           SKY/WX    TMP DP  RH WIND       PRES   REMARKS
ABILENE        MOSUNNY   95  65  37 S16G26    29.72F
AMARILLO       SUNNY     83  40  21 SW12      29.79S
AUSTIN         MOSUNNY   93  68  43 S9        29.74F
BROWNSVILLE    MOSUNNY   88  81  79 SE15G22   29.76S HX 106
CORPUS CHRISTI MOSUNNY   88  78  72 SE12      29.75S HX 101
DALLAS FTW     MOSUNNY   93  65  39 S15G24    29.72F
DEL RIO        MOSUNNY   89  67  47 SE10      29.70F
EL PASO        SUNNY     83  33  16 W13       29.87F
HOUSTON INT    PTSUNNY   88  75  65 SE14      29.77S
LUBBOCK        MOSUNNY   87  45  23 SW18      29.77F
SAN ANGELO     SUNNY     96  60  30 S13       29.73F
SAN ANTONIO    MOSUNNY   92  68  45 SE14      29.76F
WACO           MOSUNNY   92  66  42 S15       29.74F
WICHITA FALLS  NOT AVBL
$$
...OTHER LOCATIONS IN NEW MEXICO...

CITY           SKY/WX    TMP DP  RH WIND       PRES   REMARKS
ALAMAGORDO     SUNNY     82  32  16 S12G17    29.87S
ALBUQUERQUE    MOSUNNY   77  27  15 SW21G28   29.89F
CANNON AFB     SUNNY     82  37  20 W12       29.82F
CLOVIS           N/A     82  37  20 S15       29.84F
HOLLOMAN AFB   SUNNY     83  30  14 SW9       29.84F
ROSWELL        SUNNY     82  40  22 SE6       29.80F
RUIDOSO        SUNNY     73  32  21 SW14      30.00F
SANTA FE       MOSUNNY   71  27  19 W14G24    29.92F
TRUTH OR CONSE SUNNY     80  31  16 S8        29.86F
TUCUMCARI      SUNNY     83  36  18 W10       29.78F
$$

USA.gov is the U.S. government's official web portal to all federal, state and local government web resources and services.